Regional Weather Roundup
Issued by NWS

Home | Current Version | Previous Version | Graphics & Text | Print | Product List | Glossary Off
Versions: 1 2 3 4 5 6 7 8 9 10 11 12 13 14 15 16 17 18 19 20 21 22 23 24 25 26 27 28 29 30 31 32 33 34 35 36 37 38 39 40 41 42 43 44 45 46 47 48 49 50

000
ASUS43 KLSX 030257
RWRMO

WEATHER SUMMARY FOR MISSOURI
NATIONAL WEATHER SERVICE SPRINGFIELD MO
1000 PM CDT MON MAY 02 2016

NOTE: "FAIR" INDICATES FEW OR NO CLOUDS BELOW 12,000 FEET WITH NO
       SIGNIFICANT WEATHER AND/OR OBSTRUCTIONS TO VISIBILITY.
       CURRENT SKY AND/OR WEATHER CONDITIONS ARE NOT AVAILABLE FOR
       CHILLICOTHE AND FARMINGTON.

MOZ001>031-035>038-043-044-053-054-030400-
...NORTHERN AND WESTERN MISSOURI...

CITY           SKY/WX    TMP DP  RH WIND       PRES   REMARKS
KANSAS CTY INT PTCLDY    49  44  83 SW6       30.07R
LEE`S SUMMIT   CLEAR     50  46  86 W5        30.07S
ST JOSEPH      PTCLDY    51  46  83 CALM      30.06S
CHILLICOTHE      N/A     48  46  93 CALM      30.07R

$$
MOZ066>068-077>081-088>096-101>105-030400-
...SOUTHWEST MISSOURI...

CITY           SKY/WX    TMP DP  RH WIND       PRES   REMARKS
SPRINGFIELD    CLOUDY    51  46  83 N5        30.06S
JOPLIN         CLOUDY    52  48  86 CALM      30.08S

$$
MOZ032>034-039>042-045>050-055>058-069>072-030400-
...CENTRAL MISSOURI...

CITY           SKY/WX    TMP DP  RH WIND       PRES   REMARKS
COLUMBIA       NOT AVBL
JEFFERSON CITY MOCLDY    52  48  86 NW5       30.06R
ROLLA          MOCLDY    49  46  90 NW5       30.04R
SEDALIA        CLOUDY    51  48  89 NW3       30.07R
WARRENSBURG    CLEAR     50  46  87 CALM      30.06F

$$
MOZ051-052-059>065-030400-
...EAST CENTRAL MISSOURI...

CITY           SKY/WX    TMP DP  RH WIND       PRES   REMARKS
ST LOUIS INTL  CLOUDY    54  49  83 NW5       30.04R

$$
MOZ072>076-082>087-097>100-106>115-030400-
...SOUTH CENTRAL AND SOUTHEAST MISSOURI...

CITY           SKY/WX    TMP DP  RH WIND       PRES   REMARKS
CAPE GIRARDEAU CLOUDY    57  49  74 N10       30.03R
POPLAR BLUFF   CLOUDY    60  49  66 N5        30.03R
WEST PLAINS    CLOUDY    53  44  71 N7        30.06R

$$



USA.gov is the U.S. government's official web portal to all federal, state and local government web resources and services.